Alexander City, AL

7:06 AM CDT on March 23, 2017 (GMT -0500)
Russell

Weather History for KALX - May, 2013

Change the Weather History Date:

Tuesday, May 14, 2013

  Actual Average (KAUO) Record (KAUO)
Temperature  
Mean Temperature 66 °F -  
Max Temperature 83 °F 81 °F 91 °F (1998)
Min Temperature 50 °F 53 °F 39 °F (1960)
Cooling Degree Days 2    
Growing Degree Days 16 (Base 50)    
Moisture  
Dew Point 51 °F    
Average Humidity 61    
Maximum Humidity 90    
Minimum Humidity 31    
Precipitation  
Precipitation 0.00 in - - ()
Sea Level Pressure  
Sea Level Pressure 30.21 in    
Wind  
Wind Speed 2 mph (SW)    
Max Wind Speed 9 mph    
Max Gust Speed 20 mph    
Visibility 10 miles    
Events      
Averages and records for this station are not official NWS values.
T = Trace of Precipitation, MM = Missing Value Source: NWS Daily Summary

Daily Weather History Graph

Daily Weather History Graph

Search for Another Location

Airport or City:

Trip Planner

Search our weather history database for the weather conditions in past years. The results will help you decide how hot, cold, wet, or windy it might be!

Date:

Astronomy

May. 14, 2013 Rise Set
Actual Time 5:45 AM CDT 7:35 PM CDT
Civil Twilight 5:18 AM CDT 8:02 PM CDT
Nautical Twilight 4:45 AM CDT 8:35 PM CDT
Astronomical Twilight 4:10 AM CDT 9:10 PM CDT
Moon 9:23 AM CDT (5/14) 11:24 PM CDT (5/14)
Length of Visible Light 14h 44m
Length of Day
13h 50m
Waxing Crescent, 19% of the Moon is Illuminated
May 14
Waxing Crescent
May 17
First Quarter
May 24
Full
May 31
Last Quarter
Jun 8
New

Hourly Weather History & Observations

Time (CDT) Temp. Heat Index Dew Point Humidity Pressure Visibility Wind Dir Wind Speed Gust Speed Precip Events Conditions
12:15 AM 52.7 °F - 48.6 °F 86% 30.23 in 10.0 mi Calm Calm - N/A   Clear
12:35 AM 54.7 °F - 50.4 °F 85% 30.23 in 10.0 mi Calm Calm - N/A   Clear
12:55 AM 50.4 °F - 46.6 °F 87% 30.22 in 10.0 mi Calm Calm - N/A   Clear
1:15 AM 50.4 °F - 46.8 °F 87% 30.22 in 10.0 mi Calm Calm - N/A   Clear
1:35 AM 50.4 °F - 46.9 °F 88% 30.22 in 10.0 mi Calm Calm - N/A   Clear
1:55 AM 50.7 °F - 47.3 °F 88% 30.22 in 10.0 mi Calm Calm - N/A   Clear
2:15 AM 51.4 °F - 47.5 °F 86% 30.22 in 10.0 mi Calm Calm - N/A   Clear
2:35 AM 50.2 °F - 46.6 °F 87% 30.21 in 10.0 mi Calm Calm - N/A   Clear
2:55 AM 50.2 °F - 46.6 °F 87% 30.21 in 10.0 mi Calm Calm - N/A   Clear
3:15 AM 50.2 °F - 46.8 °F 88% 30.21 in 10.0 mi Calm Calm - N/A   Clear
3:35 AM 50.2 °F - 46.6 °F 87% 30.20 in 10.0 mi Calm Calm - N/A   Clear
3:55 AM 50.2 °F - 46.8 °F 88% 30.20 in 10.0 mi Calm Calm - N/A   Clear
4:15 AM 50.2 °F - 47.3 °F 90% 30.20 in 10.0 mi Calm Calm - N/A   Clear
4:35 AM 50.2 °F - 46.8 °F 88% 30.21 in 10.0 mi Calm Calm - N/A   Clear
4:55 AM 50.2 °F - 46.9 °F 89% 30.21 in 10.0 mi Calm Calm - N/A   Clear
5:15 AM 50.2 °F - 47.3 °F 90% 30.22 in 10.0 mi Calm Calm - N/A   Clear
5:35 AM 50.2 °F - 47.3 °F 90% 30.23 in 10.0 mi Calm Calm - N/A   Clear
5:55 AM 50.0 °F - 47.1 °F 90% 30.23 in 10.0 mi Calm Calm - N/A   Clear
6:15 AM 50.2 °F - 47.3 °F 90% 30.24 in 10.0 mi Calm Calm - N/A   Clear
6:35 AM 50.2 °F - 47.1 °F 89% 30.24 in 10.0 mi Calm Calm - N/A   Clear
6:55 AM 52.7 °F - 48.4 °F 85% 30.25 in 10.0 mi Calm Calm - N/A   Clear
7:15 AM 55.6 °F - 49.1 °F 79% 30.25 in 10.0 mi Calm Calm - N/A   Clear
7:35 AM 58.3 °F - 49.3 °F 72% 30.26 in 10.0 mi Calm Calm - N/A   Clear
7:55 AM 60.4 °F - 49.8 °F 68% 30.26 in 10.0 mi Calm Calm - N/A   Clear
8:15 AM 61.7 °F - 50.2 °F 66% 30.26 in 10.0 mi Calm Calm - N/A   Clear
8:35 AM 65.3 °F - 50.7 °F 59% 30.27 in 10.0 mi Calm Calm - N/A   Clear
8:55 AM 70.7 °F - 53.6 °F 55% 30.27 in 10.0 mi Calm Calm - N/A   Clear
9:15 AM 70.7 °F - 50.5 °F 49% 30.27 in 10.0 mi Calm Calm - N/A   Clear
9:35 AM 72.9 °F - 47.7 °F 41% 30.27 in 10.0 mi WSW 3.5 mph - N/A   Clear
9:55 AM 75.6 °F - 50.2 °F 41% 30.27 in 10.0 mi SW 5.8 mph - N/A   Clear
10:15 AM 75.6 °F - 48.0 °F 38% 30.28 in 10.0 mi West 9.2 mph - N/A   Clear
10:35 AM 75.6 °F - 49.5 °F 40% 30.28 in 10.0 mi SSW 6.9 mph - N/A   Clear
10:55 AM 77.7 °F - 48.4 °F 36% 30.28 in 10.0 mi SW 6.9 mph - N/A   Clear
11:15 AM 78.1 °F - 48.7 °F 36% 30.28 in 10.0 mi WSW 4.6 mph - N/A   Clear
11:35 AM 78.1 °F - 48.4 °F 35% 30.28 in 10.0 mi WSW 5.8 mph - N/A   Clear
11:55 AM 78.1 °F - 47.7 °F 34% 30.27 in 10.0 mi WSW 3.5 mph - N/A   Clear
12:15 PM 78.1 °F - 47.8 °F 34% 30.26 in 10.0 mi SSW 4.6 mph 19.6 mph N/A   Clear
12:35 PM 80.6 °F - 49.6 °F 34% 30.26 in 10.0 mi West 5.8 mph - N/A   Clear
12:55 PM 80.6 °F - 50.2 °F 35% 30.25 in 10.0 mi WSW 9.2 mph - N/A   Clear
1:15 PM 80.6 °F - 50.5 °F 35% 30.24 in 10.0 mi SSW 8.1 mph - N/A   Clear
1:35 PM 80.6 °F - 51.1 °F 36% 30.23 in 10.0 mi SW 5.8 mph - N/A   Clear
1:55 PM 80.6 °F - 49.8 °F 34% 30.22 in 10.0 mi Calm Calm - N/A   Clear
2:15 PM 80.6 °F - 50.7 °F 35% 30.21 in 10.0 mi SW 8.1 mph - N/A   Clear
2:35 PM 81.9 °F - 50.7 °F 34% 30.21 in 10.0 mi SSW 8.1 mph - N/A   Scattered Clouds
2:55 PM 82.2 °F - 50.9 °F 34% 30.20 in 10.0 mi SSW 5.8 mph - N/A   Scattered Clouds
3:15 PM 82.2 °F - 50.4 °F 33% 30.19 in 10.0 mi SW 6.9 mph - N/A   Clear
3:35 PM 81.9 °F - 48.9 °F 32% 30.19 in 10.0 mi SW 6.9 mph 17.3 mph N/A   Clear
3:55 PM 81.9 °F - 49.5 °F 32% 30.18 in 10.0 mi SSW 8.1 mph - N/A   Clear
4:15 PM 82.9 °F - 49.3 °F 31% 30.18 in 10.0 mi SW 5.8 mph - N/A   Clear
4:35 PM 83.3 °F - 50.4 °F 32% 30.18 in 10.0 mi SW 8.1 mph - N/A   Clear
4:55 PM 83.3 °F - 50.9 °F 32% 30.17 in 10.0 mi South 5.8 mph - N/A   Clear
5:15 PM 83.3 °F - 50.2 °F 32% 30.16 in 10.0 mi SW 8.1 mph - N/A   Clear
5:35 PM 81.9 °F - 49.8 °F 33% 30.16 in 10.0 mi SSW 6.9 mph - N/A   Clear
5:55 PM 81.9 °F - 50.7 °F 34% 30.16 in 10.0 mi SW 6.9 mph - N/A   Clear
6:15 PM 81.9 °F - 51.8 °F 35% 30.15 in 10.0 mi SSW 8.1 mph - N/A   Clear
6:35 PM 80.6 °F 80.3 °F 53.2 °F 39% 30.15 in 10.0 mi SSW 5.8 mph - N/A   Clear
6:55 PM 80.2 °F 80.2 °F 54.9 °F 41% 30.15 in 10.0 mi SSW 3.5 mph - N/A   Clear
7:15 PM 78.1 °F - 56.7 °F 48% 30.15 in 10.0 mi South 3.5 mph - N/A   Clear
7:35 PM 75.6 °F - 56.7 °F 52% 30.16 in 10.0 mi South 3.5 mph - N/A   Clear
7:55 PM 70.9 °F - 58.5 °F 65% 30.16 in 10.0 mi Calm Calm - N/A   Clear
8:35 PM 70.7 °F - 61.9 °F 74% 30.16 in 10.0 mi Calm Calm - N/A   Clear
8:55 PM 67.6 °F - 60.1 °F 77% 30.17 in 10.0 mi Calm Calm - N/A   Clear
9:15 PM 67.3 °F - 61.2 °F 81% 30.17 in 10.0 mi Calm Calm - N/A   Clear
9:35 PM 65.5 °F - 59.2 °F 80% 30.18 in 10.0 mi Calm Calm - N/A   Clear
9:55 PM 65.5 °F - 60.1 °F 83% 30.18 in 10.0 mi Calm Calm - N/A   Clear
10:35 PM 62.8 °F - 57.6 °F 83% 30.17 in 10.0 mi Calm Calm - N/A   Clear
10:55 PM 62.8 °F - 58.3 °F 85% 30.17 in 10.0 mi Calm Calm - N/A   Clear
11:15 PM 61.7 °F - 57.2 °F 85% 30.17 in 10.0 mi Calm Calm - N/A   Clear
11:35 PM 61.9 °F - 57.4 °F 85% 30.17 in 10.0 mi Calm Calm - N/A   Clear